Regional Weather Roundup
Issued by NWS

Home | Current Version | Previous Version | Graphics & Text | Print | Product List | Glossary On
Versions: 1 2 3 4 5 6 7 8 9 10 11 12 13 14 15 16 17 18 19 20 21 22 23 24 25 26 27 28 29 30 31 32 33 34 35 36 37 38 39 40 41 42 43 44 45 46 47 48 49 50
000
ASUS43 KMKX 261011
RWRWI

WISCONSIN REGIONAL WEATHER ROUNDUP
NATIONAL WEATHER SERVICE MILWAUKEE/SULLIVAN WI
400 AM CST MON JAN 26 2015

NOTE: "FAIR" INDICATES FEW OR NO CLOUDS BELOW 12,000 FEET WITH NO
SIGNIFICANT WEATHER AND/OR OBSTRUCTIONS TO VISIBILITY.

WIZ001-002-006>008-014>016-023>028-261100-
NORTHWEST WISCONSIN

CITY           SKY/WX    TMP DP  RH WIND       PRES   REMARKS
SUPERIOR ARPT  LGT SNOW  21  18  88 S6        29.79F WCI  13
ASHLAND        CLOUDY    20  10  65 S9        29.84F WCI   9
HAYWARD        CLOUDY    19  11  70 S8        29.81F WCI   9
SIREN          LGT SNOW  21  17  84 S8        29.79F WCI  12
CUMBERLAND     FLURRIES  19  16  86 S10       29.80F WCI   8
RICE LAKE      LGT SNOW  20  15  82 SE10      29.84F WCI   9
CHETEK         CLOUDY    19  14  79 SE7       29.84F WCI  10
LADYSMITH      CLOUDY    19  11  73 S8        29.87F WCI   8
EAU CLAIRE     CLOUDY    20  13  74 S9        29.87F WCI   9
MENOMONIE      FLURRIES  21  16  79 SE8       29.87F WCI  11
NEW RICHMOND   FLURRIES  22  18  85 SE8       29.81F WCI  12
OSCEOLA        FLURRIES  23  19  86 SE10      29.82F WCI  12
$$

WIZ003>005-009-010-017-018-261100-
NORTH CENTRAL WISCONSIN

CITY           SKY/WX    TMP DP  RH WIND       PRES   REMARKS
MANITOWISH WTR CLOUDY    13   7  76 S8        29.83F WCI   2
ARBOR VITAE    CLOUDY    16   8  72 S10       29.84F WCI   3
WOODRUFF       CLOUDY    16   8  72 S10       29.84F WCI   3
RHINELANDER    CLOUDY    12   4  70 SW7       29.87F WCI   1
EAGLE RIVER    MOCLDY    11   4  71 S6        29.85F WCI   2
LAND O LAKES   CLOUDY    13   6  73 S5        29.84F WCI   5
PHILLIPS       CLOUDY    14   7  73 S7        29.85F WCI   4
TOMAHAWK       CLOUDY    12   6  77 CALM      29.88F
MEDFORD        CLOUDY    13   8  79 S7        29.87F WCI   3
MERRILL        CLOUDY    14   7  75 S3        29.89F
$$

WIZ029-030-035-036-043>047-261100-
CENTRAL WISCONSIN

CITY           SKY/WX    TMP DP  RH WIND       PRES   REMARKS
WAUSAU         CLOUDY    12   6  77 S5        29.90F WCI   4
MOSINEE        CLOUDY    12   9  85 SE3       29.92F
MARSHFIELD     CLOUDY    15   7  70 S9        29.90F WCI   3
STEVENS POINT  CLOUDY     7   3  85 CALM      29.95F
WAUPACA        MOCLDY    12   8  84 CALM      29.97F
WAUTOMA        MOCLDY     9   6  87 CALM      29.98F
WISC RAPIDS    CLOUDY    14   7  73 S5        29.96F WCI   6
CAMP DOUGLAS   CLOUDY    17  15  89 S7        29.94F WCI   8
$$

WIZ011>013-019>022-031-037>040-048>050-261100-
NORTHEAST WISCONSIN

CITY           SKY/WX    TMP DP  RH WIND       PRES   REMARKS
ANTIGO         CLOUDY     8   4  84 SW5       29.90F WCI  -1
SHAWANO        MOCLDY    12   8  83 CALM      29.97S
OCONTO         MOCLDY     9   7  92 CALM      29.98F
STURGEON BAY   MOCLDY     9   5  85 CALM      29.98F
GREEN BAY      CLOUDY    13   9  84 CALM      29.97F
MANITOWOC      MOCLDY    11   8  88 CALM      29.98F
APPLETON       PTCLDY    12   7  79 CALM      29.96F
CLINTONVILLE   PTCLDY    10   7  85 CALM      29.96S
OSHKOSH        CLEAR     11   6  81 CALM      29.96F
$$

WIZ032>034-041-042-053>061-261100-
SOUTHWEST WISCONSIN

CITY           SKY/WX    TMP DP  RH WIND       PRES   REMARKS
LA CROSSE      CLOUDY    23  14  68 S12       29.94F WCI  12
SPARTA         CLOUDY    20  12  72 S5        29.95F WCI  13
VIROQUA        CLOUDY    18  13  80 S9        29.92F WCI   7
BOSCOBEL       CLOUDY    19  13  77 CALM      29.99F
PRAIRIE DU CHI CLOUDY    21  12  68 CALM      29.99S
PLATTEVILLE    CLOUDY    17  13  85 CALM      29.96F
$$

WIZ056-057-062-063-064-067-068-261100-
SOUTH CENTRAL WISCONSIN

CITY           SKY/WX    TMP DP  RH WIND       PRES   REMARKS
REEDSBURG      MOCLDY    15  11  85 CALM      29.96F
BARABOO/DELLS  MOCLDY    13  10  87 CALM      29.96F
LONE ROCK      CLOUDY    15  10  80 E3        29.98F
MINERAL POINT  CLOUDY    18  12  79 CALM      29.95F
MADISON        PTCLDY    13   9  84 CALM      29.97F
MIDDLETON      PTCLDY    15  10  83 CALM      29.97F
WATERTOWN      CLEAR     10   8  92 CALM      29.96F
MONROE         PTCLDY    16  12  86 NW3       29.95F
JANESVILLE     CLEAR     12  10  92 W3        29.98S
$$

WIZ051-052-058>065-066-070>072-261100-
SOUTHEAST WISCONSIN

CITY           SKY/WX    TMP DP  RH WIND       PRES   REMARKS
MILWAUKEE      MOCLDY    17  11  77 W3        29.97F
WAUKESHA       CLEAR     10   9  92 W5        29.97F WCI   2
MILWAUKEE/TIMM PTCLDY    14  10  85 CALM      29.98S
RACINE         MOCLDY    19  13  77 W5        29.99F WCI  12
BURLINGTON     CLEAR     10   8  91 CALM      29.98S
KENOSHA        CLOUDY    17  13  84 W6        29.97F WCI   9
FOND DU LAC    CLEAR     10   6  84 CALM      29.97F
SHEBOYGAN      PTCLDY    11   8  88 CALM      29.97F
WEST BEND      CLOUDY    12   9  85 CALM      29.96F
JUNEAU         CLEAR     11   7  85 CALM      29.97S
$$

LSZ147-162-261100-
LAKE SUPERIOR

STATION/POSITION TIME  TEMP    WIND        PRES    WAVE
                       AIR SEA DIR/SP/G            HT/PER
                 (UTC) (F)     (DEG/KT/KT) (MB)    (FT/S)
DEVILS ISLAND    1000   20     180/  9/ 12 1011.1F
PORT WING        0900   22     170/  7/ 15 1010.8
SAXON HARBOR     0900   20      CALM  /  8 1011.9
$$

LMZ867-665-643>646-261100-
LAKE MICHIGAN

STATION/POSITION TIME  TEMP    WIND        PRES    WAVE
                       AIR SEA DIR/SP/G            HT/PER
                 (UTC) (F)     (DEG/KT/KT) (MB)    (FT/S)
NORTHPORT PIER   0914   13      CALM  /  2 1015.6F
SISTER BAY       0913    9        CALM       N/A
KEWAUNEE LAKESHO 0900   12     300/  3/  7 1014.9F
SHEBOYGAN LAKESH 1000   20     260/  2/  4 1016.2F
PORT WASHINGTON  0940   16        CALM     1015.9F
MILWAUKEE LAKESH 0900   19     300/  5/  7   N/A
KENOSHA   LAKESH 1000   20     280/  5/  6 1015.2F
$$

TC  - TEMPERATURE IN CELSIUS
VSB - VISIBILITY IN STATUTE MILES
WCI - WIND CHILL INDEX
HX  - HEAT INDEX



USA.gov is the U.S. government's official web portal to all federal, state and local government web resources and services.